Regional Weather Roundup
Issued by NWS Upton, NY

Home | Current Version | Previous Version | Text Only | Print | Product List | Glossary On
Versions: 1 2 3 4 5 6 7 8 9 10 11 12 13 14 15 16 17 18 19 20 21 22 23 24 25 26 27 28 29 30 31 32 33 34 35 36 37 38 39 40 41 42 43 44 45 46 47 48 49 50
000
ASUS41 KOKX 032108
RWROKX

REGIONAL WEATHER ROUNDUP
NATIONAL WEATHER SERVICE NEW YORK NY
400 PM EST SAT DEC 03 2016

NOTE: "FAIR" INDICATES FEW OR NO CLOUDS BELOW 12,000 FEET WITH NO
SIGNIFICANT WEATHER AND/OR OBSTRUCTIONS TO VISIBILITY.

NYZ071-072-176-178-NJZ106-104-032200-
NEW YORK CITY METRO AREA

CITY           SKY/WX    TMP DP  RH WIND       PRES   REMARKS
Central Park   CLEAR     45  25  45 MISG      30.10R
Wall St Helipt MOCLDY    48  29  47 VRB3      30.09R
Bronx Bot Gard   N/A     46  25  42 W9        30.05R
LaGuardia APRT PTCLDY    47  27  45 NW22G33   30.07R
Kennedy INTL   PTCLDY    47  23  38 NW24G41   30.08R
Breezy Point     N/A     45 N/A N/A NW16G29     N/A
Newark/Liberty MOCLDY    46  27  47 NW15G26   30.09R
Teterboro      CLEAR     45  26  47 NW14      30.08R
$$

NYZ177-179-078>081-032200-
LONG ISLAND NEW YORK

CITY           SKY/WX    TMP DP  RH WIND       PRES   REMARKS
Jones Beach      N/A     45 N/A N/A NW24G30     N/A
Matinecock PT  NOT AVBL
Farmingdale    CLEAR     46  24  42 NW12G29   30.05R
MacArthur/ISP  MOCLDY    46  25  43 NW20G31   30.02R
Shirley        CLOUDY    45  27  49 NW12      30.02R
Westhampton    MOCLDY    45  26  47 NW15      30.02R
Southampton      N/A     45  32  61 NW10      29.97R
Bridgehampton  NOT AVBL
East Hampton     N/A     42  27  53 NW8G17    29.99R
Montauk          N/A     44  26  49 NW16G24   29.99R
$$

NYZ052-065-067-032200-
HUDSON VALLEY

CITY           SKY/WX    TMP DP  RH WIND       PRES   REMARKS
White Plains   PTCLDY    43  25  49 NW24G31   30.03R
Newburgh       MOCLDY    41  28  60 NW16      30.06R
Montgomery     CLOUDY    43  27  53 NW12      30.05R
Poughkeepsie   CLOUDY    41  25  53 NW9       30.04R
Albany         MOCLDY    37  25  61 W18G28    30.04R WCI  27
$$

NJZ001-105-106-008-010-013-015-019>022-104-032200-
NEW JERSEY

CITY           SKY/WX    TMP DP  RH WIND       PRES   REMARKS
Newark/Liberty MOCLDY    46  27  47 NW15G26   30.09R
Teterboro      CLEAR     45  26  47 NW14      30.08R
Caldwell       MOCLDY    45  27  49 NW9       30.09R
Somerville     MOCLDY    47  26  44 NW9       30.10R
Linden         CLOUDY    46  26  45 NW16G25   30.10R
Sussex         CLOUDY    43  28  55 NW8G18    30.09R
Andover          N/A     43  26  51 VRB6      30.09R
Trenton        CLOUDY    49  27  42 NW15G21   30.10R
Millville      CLEAR     49  33  54 NW21G31   30.14R
Atlantic City  CLEAR     49  28  44 NW18G25   30.11R
Wrightstown    NOT AVBL
Toms River     PTCLDY    48  27  44 NW13G22   30.09R
Belmar         MOCLDY    47  27  45 NW16      30.09R
$$

PAZ047>061-062-071-032200-
EASTERN PENNSYLVANIA

CITY           SKY/WX    TMP DP  RH WIND       PRES   REMARKS
Philadelphia   MOCLDY    49  31  49 NW17      30.15R
Allentown      CLOUDY    46  27  47 NW10G22   30.13R
Scranton       CLOUDY    41  28  60 NW12      30.13R
$$

CTZ002-004>006-009-010-012-RIZ004-006-007-MAZ004-011-015-032200-
SOUTHERN NEW ENGLAND
 IN CT

CITY           SKY/WX    TMP DP  RH WIND       PRES   REMARKS
Bradley INTL   MOCLDY    41  23  48 NW15      30.00R
Hartford       MOCLDY    42  24  49 NW9G23    30.01R
Danbury        MOCLDY    42  25  50 VRB7      30.03R
Wtrbury/Oxford MOCLDY    43  21  42 NW12G23   30.01R
Bridgeport     CLOUDY    47  24  40 NW12G24   30.02R
Meriden        CLOUDY    44  24  45 NW12G25   30.01R
New Haven      MOCLDY    44  26  49 NW6       30.01R
Chester          N/A     41  25  52 NW13G21   29.99R
Groton         MOCLDY    46  24  42 NW12G24   29.98R
Wilimantic     CLOUDY    43  23  45 NW16G23   29.98R

 IN RI

CITY           SKY/WX    TMP DP  RH WIND       PRES   REMARKS
Providence     PTCLDY    42  23  46 NW16G24   29.94R
Block Island   CLOUDY    43  26  51 NW12G22   29.97R
Westerly       CLOUDY    44  22  41 NW9G18    29.98R
 IN MA

CITY           SKY/WX    TMP DP  RH WIND       PRES   REMARKS
Boston         PTCLDY    43  25  49 NW15      29.92R
Worcester      MOCLDY    37  23  56 NW17      29.92R WCI  27
Westfield      CLOUDY    41  23  48 NW17G26   29.98R
Provincetown   CLOUDY    44  29  55 NW21G26   29.89R
Nantucket      CLOUDY    44  27  51 NW14      29.89R
$$

ANZ330-335-338-340-345-350-353-355-032200-
COASTAL MARINE OBSERVATIONS


STATION/POSITION TIME  SKY/WX   TEMP    WIND        PRES    VSBY  WAVE
                                AIR SEA DIR/SP/G                  HT/PER
                 (UTC)          (F)     (DEG/KT/KT) (MB)    (MI)  (FT/S)
NY HARB ENTRANCE 1950            48 55  310/ 27/ 33 1015.6          4/ 4
20 S FIRE ISLAND 1950            47 54  320/ 23/ 27 1015.6          5/ 5
GREAT SOUTH BAY  2015            46 45                N/A
23 SSW MONTAUK P 2050            46 56  310/ 23/ 31 1015.1          5/ 6
15 E BARNEGAT LI 2030               54                N/A           5/ 5
HUDSON CANYON    1950            49 59              1015.0          9/ 7
KINGS POINT      2048            46 48              1017.7
EXECUTION ROCKS  2045            48     300/ 16/ 21   N/A
CENTRAL LI SOUND 2015            45 51  310/ 16/ 19   N/A           3/ 4
EASTERN LI SOUND NOT AVBL
ROBBINS REEF     2048            46     310/ 26/ 30 1018.3
$$


>>>>>>>>>>>>>>>>>>>>>>>>>>>> KEY <<<<<<<<<<<<<<<<<<<<<<<<<<<
>                                                          <
>     SKY/WX - Sky Condition/Present Weather               <
>     TMP    - Temperature in Fahrenheit                   <
>     DP     - Dew Point in Fahrenheit                     <
>     RH     - Relative Humidity in Percent                <
>     WIND   - Direction (from) and Speed in MPH           <
>     PRES   - Mean Sea Level Pressure (inches of Hg)      <
>     WCI    - Wind Chill Index                            <
>     VSB    - VISIBILITY IN MILES                         <
>     HX     - HEAT INDEX                                  <
>     TC     - TEMPERATURE IN CELSIUS                      <
>     VRB    - VARIABLE WIND DIRECTION                     <
>                                                          <
>>>>>>>>>>>>>>>>>>>>>>>>>>>> KEY <<<<<<<<<<<<<<<<<<<<<<<<<<<



USA.gov is the U.S. government's official web portal to all federal, state and local government web resources and services.